This is the latest recevied weather packets stored in our database for station/object HOTSPR-3. If no packets are shown the sender has not sent any weather packets the latest 1 day(s).
| Time | Temp. | Humidity | Pressure | Rain* | Wind** | Luminosity | Snow |
|---|---|---|---|---|---|---|---|
| 1777990177 | 18.33° C | 98% | 1005.2 hPa | 1.02 mm | 0.89 m/s, 182° | - | - |
| 1777989877 | 18.33° C | 98% | 1005.1 hPa | 1.02 mm | 1.34 m/s, 172° | - | - |
| 1777989577 | 18.33° C | 98% | 1005.3 hPa | 0.76 mm | 0.45 m/s, 180° | - | - |
| 1777988676 | 18.33° C | 97% | 1005.2 hPa | 0.51 mm | 0.89 m/s, 180° | - | - |
| 1777988076 | 18.33° C | 97% | 1005.2 hPa | 0.25 mm | 0.89 m/s, 188° | - | - |
| 1777987776 | 18.33° C | 96% | 1005.1 hPa | 0.25 mm | 0.89 m/s, 182° | - | - |
| 1777987476 | 18.33° C | 96% | 1005.1 hPa | 0.25 mm | 0.89 m/s, 327° | - | - |
| 1777987175 | 18.33° C | 96% | 1005.1 hPa | 0 mm | 0.89 m/s, 190° | - | - |
| 1777986876 | 18.33° C | 95% | 1004.9 hPa | 0 mm | 1.34 m/s, 180° | - | - |
| 1777986853 | 18.33° C | 95% | 1005.2 hPa | 0 mm | 1.34 m/s, 188° | - | - |
| 1777986575 | 18.33° C | 95% | 1005.2 hPa | 0 mm | 1.34 m/s, 188° | - | - |
| 1777986275 | 18.33° C | 95% | 1005.2 hPa | 0 mm | 1.34 m/s, 186° | - | - |
| 1777985975 | 18.33° C | 94% | 1005.1 hPa | 0 mm | 1.34 m/s, 182° | - | - |
| 1777985074 | 18.33° C | 93% | 1005 hPa | 0 mm | 1.34 m/s, 180° | - | - |
| 1777984474 | 18.33° C | 93% | 1004.8 hPa | 0 mm | 0.89 m/s, 180° | - | - |
| 1777984173 | 18.33° C | 92% | 1005 hPa | 0 mm | 0.45 m/s, 195° | - | - |
| 1777983873 | 18.33° C | 93% | 1004.9 hPa | 0 mm | 0.89 m/s, 180° | - | - |
| 1777983573 | 18.33° C | 92% | 1004.9 hPa | 0 mm | 1.34 m/s, 168° | - | - |
| 1777982973 | 18.33° C | 91% | 1004.5 hPa | 0 mm | 0.89 m/s, 189° | - | - |
| 1777982673 | 18.33° C | 91% | 1004.6 hPa | 0 mm | 1.34 m/s, 189° | - | - |
| 1777981772 | 18.33° C | 92% | 1004.2 hPa | 0 mm | 1.34 m/s, 182° | - | - |
| 1777981472 | 18.33° C | 90% | 1003.8 hPa | 0 mm | 1.34 m/s, 180° | - | - |
| 1777981172 | 18.33° C | 89% | 1004.1 hPa | 0 mm | 1.79 m/s, 184° | - | - |
| 1777980872 | 18.89° C | 89% | 1003.9 hPa | 0 mm | 1.34 m/s, 185° | - | - |
| 1777980271 | 18.33° C | 88% | 1004 hPa | 0 mm | 1.79 m/s, 186° | - | - |
* Rain since midnight (hover to see other rain measurements)
** Current wind speed in m/s (hover to see current wind gust speed)